RADIO 6

Satellite information

Favourite Embed

Satellite Type and Status

PAYLOADIN ORBIT

Key statistics

Satellite RADIO 6 at a glance.

Uptime

16029

Days in orbit

Revolutions

≈ 12.1

Per day

Orbit

LEO

Low Earth Orbit

Inclination

83.0

Latest

Satellite identification and parameters

Extended collection of information and parameters for RADIO 6.

Object identification

Identified? True

Debris? False

Object name: RADIO 6

International designator: 1981-120F

Object number (NORAD): 13002

Object ID (CCSDS): 13002

Country: COMMONWEALTH OF INDEPENDENT STATES (CIS)

Current information (Y/N): Y

RCS size: MEDIUM

Orbital parameters

Period: 118.632 minutes

Inclination: 82.9604 deg

SMA: 7997.611 km

Apoapsis: 1661.669 km

Periapsis: 1577.283 km

RAAN: 63.5902 deg

Eccentricy: 0.0052757

Argument of periapsis: 156.3506 deg

Mean anomaly: 357.683 deg

Mean motion: 12.13842516 rev/day

Mean motion (dot): -0.00000033 rev/day2

B* drag term: -0.0004495 1/REarth

Two-line elements (TLE)

Creation date: Nov. 4, 2025, 11:56 p.m.

Reference frame: TEME

Reference center: EARTH

Epoch: Nov. 4, 2025, 6:15 p.m. UTC

TLE line 0: 0 RADIO 6

TLE line 1: 1 13002U 81120F 25308.76060391 -.00000033 00000-0 -44950-3 0 9991

TLE line 2: 2 13002 82.9604 63.5902 0052757 156.3506 357.6830 12.13842516944231

Live tracking on map

Real-time ground track for satellite RADIO 6.

In-orbit conjunctions

There are no conjunctions computed for RADIO 6, at the moment. Check back to stay up to date, as we update our databases every day.

Go to all conjunctions

Associated space launch

6 Soviet amateur radio satellites

RADIO 6 was lifted into orbit during the mission ‘Kosmos-3M | Radio Sputnik 3 to 8’, on board a Kosmos-3M space rocket.

The launch took place on Dec. 17, 1981, 11 a.m. from 132/2.

For more information about the launch, click the button.

Launch to space Kosmos-3M | Radio Sputnik 3 to 8
Kosmos-3M | Radio Sputnik 3 to 8

Agency: N/A

Status: Launch Successful

Launch date: Dec. 17, 1981, 11 a.m. UTC

Rocket: Kosmos-3M

Launch pad: 132/2

Location: Plesetsk Cosmodrome, Russian Federation

...

Latest news about this satellite

There are no fresh news available about this satellite. Check back as we update our databases every day.


Newsletter sign-up

Weekly statistics, charts and insights to help you stay on top of the space industry.